Regional Weather Roundup
Issued by NWS

Home | Current Version | Previous Version | Text Only | Print | Product List | Glossary Off
Versions: 1 2 3 4 5 6 7 8 9 10 11 12 13 14 15 16 17 18 19 20 21 22 23 24 25 26 27 28 29 30 31 32 33 34 35 36 37 38 39 40 41 42 43 44 45 46 47 48 49 50

393
ASUS43 KMPX 080010
RWRMN
WEATHER ROUNDUP FOR MINNESOTA
NATIONAL WEATHER SERVICE TWIN CITIES/CHANHASSEN MN
600 PM CST WED DEC 07 2016


NOTE: "FAIR" INDICATES FEW OR NO CLOUDS BELOW 12,000 FEET WITH NO
SIGNIFICANT WEATHER AND/OR OBSTRUCTIONS TO VISIBILITY. N/A MEANS
CURRENT SKY AND/OR WEATHER CONDITIONS ARE NOT AVAILABLE.

MNZ060>063-068>070-080100-
   Twin Cities Metro

CITY           SKY/WX    TMP DP  RH WIND       PRES   REMARKS
TWIN CITIES    FLURRIES  19   9  65 W21G29    30.10R WCI   3
6HR MIN TEMP:  19; 6HR MAX TEMP:  21; 6HR PCP: TRACE;

ST PAUL        CLOUDY    19   9  65 W21G31    30.12R WCI   3
CRYSTAL        CLOUDY    17   5  59 W17G29    30.09R WCI   1
BLAINE         PTCLDY    18   9  68 W20G28    30.07S WCI   1
LAKEVILLE      CLOUDY    18  10  73 W17G29    30.11R WCI   2
EDEN PRAIRIE   FLURRIES  19   8  62 W18G29    30.11R WCI   4
6HR MIN TEMP:  19; 6HR MAX TEMP:  21; 6HR PCP: TRACE;

SOUTH ST PAUL  MOCLDY    19   9  63 W15G24    30.10S WCI   5
LAKE ELMO      FAIR      19  10  68 W20G25    30.08S WCI   4
$$
MNZ001>005-007-008-013>017-022>024-027-028-080100-
   Northwest Minnesota

CITY           SKY/WX    TMP DP  RH WIND       PRES   REMARKS
BEMIDJI        LGT SNOW  18  15  88 W16       29.94R WCI   3
HALLOCK          N/A     23  21  93 N18G24    30.07R WCI   9
ROSEAU         PTCLDY    23  18  80 N18       29.98R WCI   9
WARROAD        LGT SNOW  21  18  86 NW17      29.97R WCI   7
THIEF RVR FALL FLURRIES  21  19  92 NW18      30.02R WCI   6
CROOKSTON      LGT SNOW  19  18  93 NW25      30.07R WCI   2
FOSSTON        LGT SNOW  18  16  93 W17G23    30.00R WCI   2
DETROIT LAKES  LGT SNOW  16  12  86 W17G25    30.05R WCI   0
MOORHEAD       MIX PCPN  14  10  85 W23G31    30.12R WCI  -5
PARK RAPIDS    LGT SNOW  16   9  74 W20       29.97R WCI  -1
$$
MNZ006-009>011-018-025>026-080100-
   North Central Minnesota

CITY           SKY/WX    TMP DP  RH WIND       PRES   REMARKS
BAUDETTE       LGT SNOW  24  19  81 N17G29    29.90R WCI  11
FLAG ISLAND    CLOUDY    23  19  86 N22       29.95R WCI   8
INTL FALLS     LGT SNOW  23  20  88 NW9       29.85R FOG     WCI  13
6HR MIN TEMP:  22; 6HR MAX TEMP:  26; 6HR PCP:  0.05;

WASKISH        LGT SNOW  25  21  86 NW12G17   29.91R WCI  14
BIG FORK       LGT SNOW  19  18  93 CALM      29.86R
LONGVILLE      LGT SNOW  16  12  86 W9G16     29.94R WCI   4
GRAND RAPIDS   LGT SNOW  18  14  84 W14G20    29.91R FOG     WCI   4
CRANE LAKE     LGT SNOW  21  19  93 NW8       29.83R WCI  12
ORR            LGT SNOW  21  18  86 NW9       29.80R WCI  11
COOK           LGT SNOW  19  18  93 W8        29.82R WCI   9
$$
MNZ012-019>021-037-080100-
   Northeast Minnesota

CITY           SKY/WX    TMP DP  RH WIND       PRES   REMARKS
DULUTH         LGT SNOW  16  12  84 W17       29.86R BLWGSNOWWCI   0
6HR MIN TEMP:  16; 6HR MAX TEMP:  18;

ELY            LGT SNOW  18  16  93 W12G17    29.77R WCI   5
HIBBING        LGT SNOW  16  13  88 W12       29.85R FOG     WCI   3
EVELETH        LGT SNOW  18  14  84 W15       29.84S WCI   3
DULUTH HARBOR  FLURRIES  21  16  79 SW20      29.93R WCI   6
TWO HARBORS    FLURRIES  21  14  73 W12G23    29.83S WCI   9
SILVER BAY     FLURRIES  19  16  86 W7        29.80S WCI  10
GRAND MARAIS     N/A     28  23  81 W15G25    29.76R WCI  16
G MARAIS ARPRT LGT SNOW  19  16  86 W9        29.68R WCI   9
$$
MNZ029>031-032-039>041-046>048-054>057-064-080100-
   West Central Minnesota

CITY           SKY/WX    TMP DP  RH WIND       PRES   REMARKS
FERGUS FALLS   LGT SNOW  12   9  85 NW24G30   30.18R WCI  -8
WHEATON        LGT SNOW  14  10  85 W21       30.21R WCI  -4
MORRIS         LGT SNOW  12   9  85 W21G31    30.15S WCI  -6
ALEXANDRIA     LGT SNOW  12   8  84 W17G32    30.09R FOG     WCI  -5
ELBOW LAKE     LGT SNOW  11   9  90 NW21G28   30.14R VSB 3/4 WCI  -8
WADENA         LGT SNOW  12   9  85 W13G21    30.02S WCI  -3
GLENWOOD       LGT SNOW  12   9  85 W22G28    30.10S WCI  -7
APPLETON       CLOUDY    16   7  67 NW22G30   30.20R WCI  -2
BENSON         FLURRIES  12   7  79 NW23G32   30.17R WCI  -7
ORTONVILLE     CLOUDY    12   3  67 W18G25    30.20S WCI  -5
MADISON        CLOUDY    16   7  67 W25       30.23R WCI  -3
WILLMAR        CLOUDY    16   9  73 W23G35    30.16S WCI  -2
$$
MNZ033>034-036-042>043-049>051-058-059-080100-
   Central Minnesota

CITY           SKY/WX    TMP DP  RH WIND       PRES   REMARKS
ST CLOUD       CLOUDY    15   8  73 W18G30    30.07S WCI  -2
6HR MIN TEMP:  15; 6HR MAX TEMP:  19; 6HR PCP: TRACE;

PAYNESVILLE    CLOUDY    13   9  81 W20G26    30.12R WCI  -4
AITKIN         LGT SNOW  18   9  68 W9G20     29.95R WCI   6
PINE RIVER     FLURRIES  16  10  79 W6G16     30.00R WCI   7
BRAINERD       LGT SNOW  15   9  76 W16G23    29.99S WCI  -1
STAPLES        LGT SNOW  12   9  85 W17       30.02S WCI  -5
LONG PRAIRIE   LGT SNOW  14   9  79 SW14G21   30.07R WCI  -1
LITTLE FALLS   CLOUDY    16   9  73 W14G23    30.05R WCI   1
LITCHFIELD     CLOUDY    16   9  73 W20G29    30.13R WCI  -1
BUFFALO        PTCLDY    15   8  71 W16G23    30.12R WCI   0
MAPLE LAKE     CLEAR     16   9  75 W16G23    30.11R WCI   0
HUTCHINSON     FLURRIES  17  10  75 W22G29    30.14R WCI  -1
$$
MNZ037-044-045-052-053-080100-
   East Central Minnesota

CITY           SKY/WX    TMP DP  RH WIND       PRES   REMARKS
PRINCETON      CLOUDY    18   9  68 W15G23    30.06R WCI   3
MORA           MOCLDY    18  10  73 W13G21    30.03S WCI   4
CAMBRIDGE      FLURRIES  19   9  63 W17G23    30.03S WCI   4
RUSH CITY      CLOUDY    18   9  68 W16G22    30.04R WCI   3
MOOSE LAKE     LGT SNOW  18  12  79 W9G17     29.94R WCI   6
HINCKLEY       FLURRIES  18  12  79 W15G21    30.00R WCI   3
CLOQUET        LGT SNOW  16  10  79 SW12G22   29.89S WCI   3
MCGREGOR       CLOUDY    18  12  79 W10G20    29.95S WCI   6
$$
MNZ071>073-080-081-089-090-097-098-080100-
   Southwest Minnesota

CITY           SKY/WX    TMP DP  RH WIND       PRES   REMARKS
MONTEVIDEO     CLOUDY    16   7  67 NW17G26   30.22R WCI   0
GRANITE FALLS  MOCLDY    15   7  72 W24G35    30.23R WCI  -4
CANBY          CLEAR     12   4  69 NW22G37   30.25R WCI  -7
REDWOOD FALLS  CLOUDY    15   4  61 W25G33    30.20R WCI  -4
OLIVIA         MOCLDY    18  10  73 W21G32    30.17R WCI   1
PIPESTONE      PTCLDY    12   5  73 NW25G31   30.22R WCI  -8
WINDOM         CLOUDY    14   7  73 W29G37    30.19R WCI  -7
WORTHINGTON    FLURRIES  13   7  77 W30G36    30.20R WCI  -8
JACKSON        MOCLDY    14   7  73 W25G35    30.20R WCI  -5
TRACY          MOCLDY    13   6  74 NW24G30   30.22R WCI  -6
SLAYTON        PTCLDY    12   6  77 W24G38    30.20R WCI  -8
$$
MNZ065>067-074>077-082>085-091>093-080100-
   South Central Minnesota

CITY           SKY/WX    TMP DP  RH WIND       PRES   REMARKS
MANKATO        FLURRIES  17   8  67 W24G33    30.16R WCI  -1
NEW ULM        CLOUDY    16   7  67 W25       30.18R WCI  -3
ST JAMES       MOCLDY    16   7  67 W23G31    30.21R WCI  -2
FAIRMONT       CLOUDY    18   9  68 W20G30    30.20R WCI   2
GLENCOE        FLURRIES  18  13  80 W17G24    30.14R WCI   3
FARIBAULT      FLURRIES  18  10  73 W22G28    30.13R WCI   0
OWATONNA       FLURRIES  18  10  73 W24       30.13R WCI   0
WASECA         CLOUDY    19  12  73 W23G32    30.16R WCI   2
ALBERT LEA     FLURRIES  23  14  68 W13G25    30.14R WCI  11
$$
MNZ078>079-086>088-094>096-080100-
   Southeast Minnesota

CITY           SKY/WX    TMP DP  RH WIND       PRES   REMARKS
ROCHESTER      LGT SNOW  18  13  80 NW21      30.10R WCI   1
6HR MIN TEMP:  16; 6HR MAX TEMP:  19; 6HR PCP: TRACE;

RED WING       CLOUDY    21   9  58 W13G25    30.09S WCI   9
STANTON        FLURRIES  20  11  68 W23G30    30.11S WCI   4
DODGE CENTER   FLURRIES  18  10  73 W17G26    30.10S WCI   2
WINONA         FLURRIES  21  14  73 W10G23    30.12S WCI  10
AUSTIN         CLOUDY    19  10  68 W22G29    30.12S WCI   3
PRESTON        LGT SNOW  18  13  79 W16       30.11S WCI   3
$$
ABBREVIATIONS USED IN REMARKS
   TC - TEMPERATURES IN CELSIUS
  WCI - WIND CHILL INDEX
   HX - HEAT INDEX
  VSB - VISIBILITY
$$




USA.gov is the U.S. government's official web portal to all federal, state and local government web resources and services.